Temperature
22 22 21 20 19 19 19 18 18 18 18 18 18 18 18 18 18 18 18 18 17 18 18 17 17 17 17 17 17 17 17 17 17 17 17 18 17 17 17 17 17 17 17
22 21 20 19 19 19 18 18 18 18 18 18 18 18 18 18 18 18 18 18 17 17 17 17 17 17 17 17 17 17 17 17 17 17 18 18 18 18 18 18 17 17 17
22 21 20 19 19 18 18 18 18 18 18 18 18 18 18 17 17 17 18 17 17 17 17 17 17 17 17 17 17 17 17 17 17 17 18 18 18 18 18 18 18 17 17
23 21 20 19 19 18 18 18 18 18 18 17 18 18 18 17 18 18 17 17 17 16 17 17 17 17 17 17 17 16 17 17 17 17 18 18 18 18 18 18 18 18 17
23 22 20 20 19 18 18 18 18 17 17 17 18 18 17 17 17 17 17 17 17 16 16 16 16 17 16 16 16 16 16 16 17 17 18 18 18 18 18 18 18 18 18
23 22 20 19 19 18 18 17 17 17 17 17 17 17 17 17 17 17 17 17 17 16 16 16 16 16 16 16 16 16 16 16 17 17 17 18 18 18 18 18 18 18 18
23 22 20 19 18 18 18 17 17 17 17 17 17 17 17 17 17 17 17 17 17 17 17 16 16 16 16 16 16 16 16 16 16 17 17 17 18 18 18 18 18 18 18
24 22 20 19 19 18 18 17 17 17 17 17 17 17 17 17 17 17 17 17 17 17 17 16 16 16 16 16 16 16 16 16 16 16 17 17 17 17 18 18 18 18 18
24 22 20 19 19 18 18 17 17 17 17 17 17 17 17 17 17 17 17 17 17 17 17 16 16 16 16 15 16 16 15 16 16 16 16 17 17 17 17 17 17 17 18
24 22 21 19 19 18 18 17 17 17 17 16 16 16 17 17 16 17 17 17 17 17 16 16 16 16 16 15 16 15 15 15 16 16 16 16 16 16 17 17 17 17 17
24 22 21 20 19 18 17 17 17 17 16 16 16 16 16 16 16 17 17 17 17 16 16 16 16 16 15 15 16 15 15 15 15 15 16 16 16 16 16 16 16 17 17
24 22 21 20 19 18 18 17 17 17 17 16 16 16 16 16 16 17 17 16 16 16 16 16 16 16 16 16 16 16 15 15 15 15 15 15 15 16 16 16 16 16 16
24 22 21 20 19 19 18 17 17 17 16 16 16 16 16 16 16 16 16 16 16 16 16 16 16 16 16 15 16 16 15 15 15 15 15 15 15 15 15 15 15 15 16
23 22 21 20 19 19 18 18 17 17 17 16 16 16 16 16 16 16 16 16 16 16 16 16 16 16 15 15 15 15 15 15 15 15 15 15 15 15 15 15 15 15 15
23 22 21 20 19 19 18 18 18 17 17 17 17 17 16 16 16 16 16 16 16 16 16 16 15 15 15 15 16 15 15 15 15 15 15 15 15 15 14 14 14 14 14
23 22 21 20 19 19 18 18 18 17 17 17 17 17 17 16 16 16 16 16 16 16 15 15 15 15 15 16 15 15 15 15 15 14 14 14 14 14 14 14 14 14 13
23 22 21 20 19 19 18 18 18 17 17 17 17 16 16 16 16 16 16 16 16 15 15 15 15 15 15 15 15 15 15 14 14 14 14 13 13 13 13 13 13 13 12
22 21 20 20 19 18 18 18 18 17 17 17 16 16 16 16 16 15 15 15 15 15 15 15 14 14 14 14 14 14 14 13 13 13 13 12 12 12 12 12 12 12 11
21 20 20 19 18 18 18 18 17 17 17 16 16 16 15 15 15 15 15 14 14 14 14 14 14 13 13 13 13 13 13 12 12 12 12 11 11 11 11 11 11 11 10
19 19 19 18 18 17 17 17 17 16 16 15 15 15 15 15 15 14 14 14 13 13 13 13 12 12 12 12 12 12 12 11 11 11 11 11 10 10 10 10 10 10 10
17 17 17 17 17 17 17 16 16 15 15 15 15 14 14 14 14 13 13 13 13 12 12 12 11 11 11 11 11 11 11 11 10 10 9 9 9 9 9 9 9 8 8
15 16 16 16 16 16 16 15 15 14 14 14 14 13 13 13 13 12 12 12 12 12 11 11 10 10 10 10 10 10 10 10 9 9 9 8 8 8 8 8 7 7 7
14 14 14 14 14 14 14 14 13 13 13 13 13 12 12 12 12 12 11 11 11 11 10 10 10 9 9 9 9 9 9 9 8 8 8 8 7 7 7 6 6 6 6
13 13 13 13 13 13 13 13 13 13 13 12 12 11 11 11 11 11 11 11 10 10 10 10 9 9 9 9 8 8 8 8 8 7 7 7 7 6 6 6 6 5 5
12 12 12 12 12 12 12 12 12 12 12 11 11 11 11 10 10 10 10 10 10 10 10 9 9 8 8 8 8 7 7 7 7 7 6 6 6 6 6 5 5 4 4
11 11 11 11 11 11 11 11 11 11 11 11 10 10 10 10 10 10 10 9 9 9 9 9 8 8 7 7 7 7 6 6 6 6 6 5 5 5 4 4 4 3 3
Wind_Speed
11 10 11 11 11 10 11 12 12 11 9 8 8 6 6 5 4 5 8 6 5 6 2 2 4 2 1 3 3 2 2 2 2 1 2 2 4 5 4 3 3 5 8
11 11 10 11 11 11 11 12 12 12 11 8 7 6 6 4 4 4 6 7 6 7 6 2 3 3 2 3 1 1 0 3 2 1 1 2 2 3 5 5 5 5 6
13 13 12 11 10 11 12 12 12 12 11 9 7 6 5 4 4 5 5 5 6 6 2 4 1 3 3 4 3 3 3 2 2 2 0 0 0 2 2 4 4 4 4
11 12 12 12 11 11 12 11 11 11 11 10 10 11 8 7 7 6 6 5 5 5 5 4 2 1 0 5 4 4 2 1 2 2 1 1 1 0 1 2 3 6 5
11 11 11 10 10 10 11 11 11 11 11 10 11 10 8 7 6 6 8 7 5 4 5 5 4 2 1 3 2 3 0 1 2 2 2 2 2 3 2 2 2 3 4
10 10 9 9 9 9 10 11 12 11 10 10 10 10 10 9 8 9 9 7 5 5 5 6 4 3 2 4 2 2 2 1 2 3 2 1 2 2 2 2 3 3 3
10 10 10 10 10 10 10 10 11 11 11 10 10 10 10 9 10 9 9 8 7 6 6 6 5 3 3 4 3 2 1 2 1 2 3 3 2 1 1 1 1 1 2
10 10 10 10 10 10 10 11 11 10 10 9 9 9 8 7 7 8 7 6 5 6 8 7 6 4 5 5 3 3 3 2 1 3 2 3 3 2 2 2 1 1 2
11 11 11 10 9 9 10 10 10 10 9 8 7 8 8 7 7 8 7 5 4 7 9 8 7 5 4 3 4 2 2 4 3 3 3 2 3 2 2 2 2 2 2
11 12 11 11 10 9 10 10 10 9 9 9 8 8 7 8 7 7 6 5 5 5 8 8 7 6 5 4 3 3 3 3 3 2 2 2 3 3 2 2 2 2 2
12 12 12 11 11 11 11 10 10 9 9 8 7 8 8 7 7 6 6 5 5 5 6 6 6 6 6 5 5 4 4 5 4 4 3 2 3 4 4 3 2 2 2
12 13 13 12 12 12 11 11 11 10 9 9 8 8 8 8 8 7 6 6 6 5 5 5 5 6 6 6 6 6 5 5 5 4 3 3 4 3 3 3 4 3 2
13 13 13 12 12 12 12 12 12 11 11 10 9 8 8 8 7 7 6 6 6 6 5 5 5 5 5 6 6 6 5 4 4 3 3 3 3 2 2 3 3 4 4
12 12 12 11 11 11 11 12 12 11 11 11 11 10 9 8 8 7 7 6 6 5 5 4 4 4 2 2 3 4 4 2 1 1 2 2 2 2 2 2 3 4 4
13 12 12 11 11 10 10 10 10 10 11 11 11 10 9 8 8 7 6 6 5 5 4 2 2 1 2 2 1 0 2 2 3 3 4 5 6 7 6 4 4 5 4
12 13 12 12 12 11 11 10 9 9 9 9 9 9 8 8 7 7 6 6 5 5 5 5 5 6 5 6 8 5 4 5 5 5 4 5 6 7 7 7 6 5 4
11 12 12 11 10 10 11 10 10 9 9 8 8 8 8 8 7 7 7 7 7 7 8 8 9 9 9 11 11 9 7 7 6 5 5 5 7 7 5 4 3 3 3
7 9 10 10 10 10 10 9 10 9 9 8 8 8 8 8 7 7 8 8 8 8 8 9 9 9 10 12 11 9 7 7 7 7 6 7 7 8 7 5 4 2 2
6 6 8 10 9 9 10 10 9 9 9 8 7 7 8 8 9 9 9 8 8 9 9 9 10 11 11 13 11 8 5 6 7 7 8 7 7 10 11 7 6 5 5
9 8 8 9 9 8 10 11 10 9 9 8 8 8 9 10 10 10 9 9 9 10 10 10 10 11 10 13 14 9 5 6 5 6 8 12 10 10 10 7 6 6 7
10 10 9 9 8 9 11 11 11 10 10 10 11 11 11 11 11 10 10 10 10 11 11 11 10 10 10 12 14 13 6 5 4 4 5 5 7 7 8 6 4 4 6
11 11 10 10 9 10 12 13 12 11 12 12 13 12 11 11 11 10 10 10 10 10 9 9 8 8 8 10 11 13 12 9 6 5 4 3 4 5 6 4 4 7 8
11 11 12 13 11 11 12 14 12 12 14 14 14 13 13 11 10 10 9 7 6 6 6 6 7 8 7 7 10 10 10 9 5 4 4 3 5 6 4 4 6 6 4
11 12 14 15 13 13 14 13 12 13 15 15 13 12 12 11 11 9 8 7 5 4 5 6 7 7 6 6 6 5 5 6 6 5 4 6 6 4 5 4 2 2 4
12 12 14 14 14 14 14 12 12 13 14 14 13 12 11 12 12 12 10 10 9 9 8 8 7 6 6 5 6 5 5 5 6 7 4 2 2 2 3 4 5 5 6
13 14 15 15 14 14 13 12 11 11 12 11 10 9 9 9 10 11 12 17 13 15 16 14 11 8 7 4 6 7 8 9 10 6 4 4 6 6 7 7 7 7 7
Wind_Direction
169 162 162 165 162 166 171 170 171 171 169 172 170 166 161 161 156 143 137 160 169 154 197 144 144 227 162 117 129 135 168 230 215 182 173 190 192 190 178 197 171 177 182
168 162 164 169 170 171 175 172 172 172 175 175 169 165 153 164 161 138 144 164 164 167 184 151 182 164 122 125 136 112 219 240 197 212 198 202 198 212 194 179 186 183 178
170 167 171 176 177 176 179 178 173 174 175 170 163 159 153 169 157 148 158 165 168 179 146 146 201 146 176 154 176 187 220 246 212 229 227 94 192 184 187 201 178 163 176
167 169 174 179 181 181 179 174 172 172 172 170 168 169 172 177 175 164 153 155 164 163 155 164 145 151 195 140 195 176 213 227 245 217 179 179 163 138 155 232 180 179 186
166 168 173 174 174 176 173 173 168 168 171 175 174 174 176 176 168 155 146 157 158 166 165 157 147 169 225 136 95 100 275 287 270 268 206 200 194 229 194 194 188 200 188
154 156 161 159 167 173 173 172 167 170 173 175 175 177 180 177 168 157 157 167 160 174 170 156 153 179 169 120 124 124 208 285 340 337 319 212 219 234 215 191 197 198 192
151 152 159 161 168 175 176 171 167 170 174 176 178 181 179 175 170 165 168 175 167 172 168 156 159 173 133 144 161 176 244 203 251 308 312 329 329 343 353 1 231 183 185
152 152 156 157 161 168 172 169 163 163 168 175 179 179 173 174 173 175 169 182 174 165 156 149 166 167 163 178 160 197 194 173 196 259 304 330 321 343 334 327 342 284 237
145 145 149 155 156 161 162 159 152 157 166 170 170 171 170 176 175 170 171 174 161 152 153 159 166 169 176 171 150 233 191 141 198 239 225 254 287 276 296 318 330 319 301
150 146 151 155 155 153 150 149 150 156 162 168 171 170 170 176 174 170 169 159 155 145 155 165 167 170 171 176 195 224 177 174 224 251 264 235 294 303 266 280 297 303 299
153 147 146 147 151 151 152 152 154 156 159 163 166 162 163 165 164 165 158 153 148 152 165 171 171 175 177 183 203 240 187 197 222 241 227 224 282 318 332 321 302 294 296
147 146 145 147 151 153 154 154 156 159 160 160 158 157 159 163 167 164 163 159 161 171 178 178 180 192 189 186 197 226 211 196 212 229 246 241 245 241 287 318 316 310 314
144 144 146 150 154 155 157 158 161 164 165 164 161 158 162 165 167 167 168 168 172 182 188 190 190 206 204 191 199 215 225 208 213 220 222 241 268 278 289 293 309 319 314
143 145 146 149 152 154 158 160 164 164 165 164 164 165 168 168 167 169 171 173 176 182 192 194 196 208 218 211 213 210 216 209 187 71 70 54 41 1 322 312 330 325 324
151 150 150 152 154 155 157 158 162 162 162 161 164 165 166 167 166 166 168 166 173 177 162 143 120 108 93 30 42 206 166 129 102 78 76 71 69 61 47 36 22 4 352
161 156 156 158 161 160 160 158 158 158 159 161 163 161 161 161 161 160 153 141 131 117 110 97 85 73 62 49 62 68 74 85 91 89 83 78 64 62 64 61 54 41 19
159 157 159 159 159 160 157 156 154 152 154 157 158 155 155 156 156 153 135 126 118 107 100 94 87 77 53 50 59 64 76 79 76 71 64 60 53 41 34 45 62 64 66
142 150 151 151 153 153 153 149 150 149 151 152 151 148 147 142 133 124 117 110 107 105 101 96 91 81 56 47 52 59 79 81 77 74 73 71 54 32 22 15 21 23 18
89 115 137 143 142 148 148 144 144 145 145 142 136 134 134 127 119 114 110 107 105 100 97 95 90 82 60 45 48 50 82 84 77 73 68 71 65 36 23 18 13 10 358
67 76 99 111 116 124 130 129 126 123 122 121 116 111 109 109 109 107 106 105 103 100 95 88 83 81 70 50 48 46 72 83 86 85 76 64 59 41 29 21 12 4 353
66 74 83 91 100 110 114 114 111 110 107 103 99 97 98 99 101 103 104 106 103 100 98 96 89 83 78 62 52 47 52 48 67 79 85 70 48 33 21 7 357 342 324
72 80 80 79 85 99 107 107 103 103 101 98 96 95 93 97 99 96 95 99 106 108 109 110 104 93 79 64 55 50 45 37 43 49 57 52 7 349 335 326 318 320 318
79 83 86 81 76 85 98 102 102 104 102 97 93 90 86 85 90 93 96 100 104 111 116 115 107 98 84 65 53 47 42 36 37 34 21 330 301 309 305 272 292 312 326
86 88 89 88 82 82 89 97 99 100 100 98 97 94 90 81 71 70 69 65 56 78 93 88 91 89 71 47 31 30 31 26 26 2 318 285 274 282 311 333 340 338 1
90 89 90 91 89 87 87 89 94 99 100 100 100 98 93 89 78 69 59 68 54 57 69 67 69 76 69 38 27 25 17 6 3 333 307 316 20 18 16 14 18 15 10
95 93 92 91 89 88 87 86 89 95 102 105 105 106 109 109 107 100 81 59 66 67 72 76 84 82 87 77 31 14 354 344 346 341 349 20 26 22 18 12 8 10 10
Height
1478 1480 1483 1486 1489 1491 1495 1498 1502 1506 1510 1514 1519 1523 1527 1530 1534 1537 1538 1541 1543 1545 1547 1549 1550 1552 1554 1555 1556 1557 1559 1560 1562 1563 1564 1565 1565 1566 1567 1568 1569 1570 1571
1475 1479 1481 1483 1487 1489 1492 1496 1500 1503 1508 1512 1516 1521 1524 1529 1532 1535 1537 1539 1542 1544 1546 1547 1549 1551 1552 1553 1555 1556 1558 1560 1561 1562 1563 1564 1566 1565 1566 1567 1568 1569 1570
1472 1476 1479 1481 1485 1487 1490 1493 1497 1501 1506 1510 1514 1518 1523 1527 1531 1533 1535 1538 1540 1543 1545 1546 1548 1550 1551 1552 1553 1555 1557 1559 1560 1561 1563 1563 1563 1564 1565 1566 1567 1568 1569
1469 1474 1477 1480 1482 1484 1488 1491 1495 1499 1504 1508 1511 1515 1519 1523 1527 1531 1533 1536 1539 1541 1543 1545 1547 1548 1550 1551 1552 1554 1556 1557 1559 1560 1561 1562 1562 1563 1565 1566 1566 1567 1568
1468 1471 1475 1478 1480 1483 1485 1488 1492 1497 1501 1505 1509 1513 1518 1522 1526 1529 1531 1534 1537 1540 1542 1543 1545 1547 1549 1550 1551 1552 1554 1556 1557 1559 1560 1561 1562 1563 1564 1564 1566 1566 1567
1466 1470 1474 1476 1479 1482 1484 1487 1490 1494 1498 1502 1506 1510 1515 1520 1523 1526 1529 1533 1535 1538 1540 1542 1543 1545 1547 1548 1550 1551 1553 1554 1556 1557 1559 1560 1561 1562 1562 1563 1564 1564 1565
1465 1469 1472 1475 1478 1480 1483 1485 1488 1492 1496 1500 1504 1508 1513 1517 1521 1524 1528 1531 1534 1536 1538 1541 1542 1544 1546 1547 1548 1550 1552 1553 1554 1556 1557 1558 1559 1560 1561 1562 1562 1563 1564
1464 1468 1471 1473 1476 1478 1480 1483 1486 1490 1494 1498 1502 1507 1511 1515 1519 1523 1527 1530 1532 1535 1537 1539 1541 1543 1544 1546 1547 1549 1550 1551 1553 1555 1556 1557 1558 1559 1560 1561 1561 1562 1562
1462 1466 1470 1472 1475 1477 1479 1482 1485 1489 1492 1496 1500 1505 1508 1512 1517 1521 1525 1528 1531 1533 1535 1537 1539 1541 1543 1545 1546 1548 1549 1551 1552 1553 1554 1555 1557 1558 1559 1559 1560 1561 1561
1460 1464 1468 1471 1474 1476 1479 1482 1485 1488 1492 1495 1499 1503 1507 1511 1515 1519 1523 1526 1529 1532 1534 1536 1538 1540 1542 1543 1545 1547 1548 1549 1550 1551 1553 1554 1555 1556 1557 1558 1558 1559 1559
1458 1463 1467 1471 1474 1476 1479 1482 1485 1488 1491 1495 1498 1503 1506 1510 1514 1518 1521 1524 1527 1530 1532 1534 1536 1538 1540 1542 1544 1545 1547 1548 1549 1550 1551 1552 1553 1554 1555 1556 1556 1557 1557
1456 1461 1466 1469 1473 1476 1479 1482 1485 1488 1491 1494 1498 1502 1506 1509 1513 1516 1520 1523 1525 1528 1531 1533 1535 1537 1539 1540 1542 1544 1545 1546 1547 1548 1549 1550 1551 1552 1552 1553 1554 1554 1555
1456 1460 1465 1469 1472 1475 1479 1482 1485 1488 1491 1495 1498 1502 1505 1509 1512 1515 1518 1521 1524 1527 1529 1531 1533 1535 1537 1539 1540 1542 1543 1545 1546 1547 1547 1548 1549 1549 1550 1550 1551 1551 1552
1455 1460 1464 1468 1472 1475 1479 1482 1485 1488 1491 1495 1498 1501 1505 1508 1511 1514 1517 1520 1522 1525 1528 1530 1532 1534 1536 1537 1538 1540 1541 1542 1543 1544 1545 1545 1546 1546 1547 1547 1547 1548 1548
1455 1459 1463 1468 1472 1475 1479 1482 1485 1488 1491 1494 1497 1500 1504 1507 1510 1513 1516 1518 1521 1524 1526 1528 1530 1532 1533 1534 1536 1538 1539 1539 1540 1541 1542 1542 1543 1543 1544 1544 1544 1544 1544
1454 1458 1463 1467 1471 1474 1478 1481 1485 1488 1491 1494 1497 1500 1503 1506 1509 1512 1514 1517 1519 1522 1524 1526 1528 1529 1531 1532 1534 1535 1536 1537 1538 1538 1539 1539 1540 1540 1540 1540 1540 1540 1540
1452 1456 1461 1466 1469 1473 1477 1480 1484 1487 1491 1494 1497 1500 1502 1505 1508 1511 1513 1515 1518 1520 1523 1525 1526 1528 1529 1530 1532 1532 1533 1534 1535 1535 1536 1536 1537 1537 1537 1536 1536 1536 1536
1452 1455 1460 1464 1468 1472 1476 1480 1483 1487 1490 1493 1496 1499 1501 1504 1507 1510 1512 1515 1517 1519 1521 1523 1524 1526 1527 1529 1530 1530 1531 1532 1533 1533 1534 1534 1534 1534 1534 1533 1533 1533 1533
1452 1455 1459 1463 1467 1471 1475 1478 1482 1486 1489 1492 1495 1498 1500 1503 1506 1509 1511 1514 1516 1518 1520 1522 1524 1525 1526 1528 1529 1529 1530 1531 1531 1532 1532 1532 1532 1532 1531 1531 1530 1530 1529
1452 1455 1459 1462 1466 1470 1474 1477 1481 1484 1488 1491 1494 1497 1500 1502 1505 1508 1511 1513 1516 1518 1520 1522 1524 1525 1526 1527 1528 1529 1530 1530 1530 1531 1531 1530 1530 1530 1529 1528 1527 1527 1526
1455 1457 1459 1462 1466 1470 1473 1477 1481 1484 1488 1491 1494 1497 1500 1503 1506 1509 1511 1514 1516 1518 1520 1522 1524 1525 1526 1527 1528 1529 1529 1530 1530 1530 1530 1529 1528 1528 1527 1526 1525 1524 1523
1458 1460 1461 1464 1468 1471 1474 1478 1482 1485 1489 1492 1495 1498 1501 1504 1507 1510 1512 1515 1517 1519 1521 1523 1525 1526 1527 1528 1529 1529 1530 1530 1530 1530 1529 1528 1527 1526 1525 1524 1523 1522 1521
1462 1463 1465 1467 1471 1473 1476 1479 1483 1487 1490 1493 1496 1500 1503 1506 1509 1512 1515 1517 1519 1521 1523 1525 1527 1528 1528 1529 1529 1529 1530 1529 1529 1529 1528 1527 1526 1525 1524 1523 1522 1521 1519
1465 1467 1468 1471 1474 1477 1480 1483 1486 1489 1492 1495 1499 1503 1506 1509 1511 1514 1517 1519 1522 1524 1526 1527 1528 1529 1529 1529 1529 1529 1529 1528 1528 1527 1527 1526 1526 1525 1524 1522 1521 1520 1518
1470 1471 1473 1475 1478 1481 1483 1487 1489 1492 1495 1498 1502 1505 1508 1511 1514 1516 1518 1521 1523 1525 1527 1528 1529 1529 1529 1530 1529 1529 1528 1528 1527 1526 1526 1526 1525 1524 1523 1522 1520 1518 1516
1473 1475 1477 1480 1482 1485 1487 1490 1493 1496 1498 1501 1505 1509 1512 1514 1516 1518 1521 1523 1526 1527 1528 1529 1530 1530 1530 1530 1530 1529 1528 1527 1527 1526 1526 1525 1524 1523 1522 1520 1519 1517 1515